DW4230 West Island MA US current weather conditions

sailwx.info

Wind from 254 at 8 knots gusting 19

Air temperature 11.1° C
Dewpoint 11.1° C

Last reported at 2019-Dec-09 23:01 UTC.
Time now 2019-Dec-10 00:02 UTC

Location: N 41°36' W 070°50'.
View on Google Maps.

See reports from other nearby stations

  
Tides and Currents Weather Stations Pressure Air Temp Water Temp Dewpoint Dewpoint Depression Visibility Wind Speed Wind Dir Waves Ship Positions
date/time (UTC)wind fromknots sea level pressurealtimeterstation pressurevisibilityair tempwater tempwave heightnotes
2019-Dec-09 23:01 254 8 gusting 19 11.1
2019-Dec-09 22:32 192 11 gusting 20 11.1
2019-Dec-09 22:16 178 10 gusting 19 11.1
2019-Dec-09 22:00 173 6 gusting 20 11.7
2019-Dec-09 21:45 204 7 gusting 13 11.1
2019-Dec-09 21:31 183 6 gusting 16 11.1
2019-Dec-09 21:15 176 6 gusting 19 11.1
2019-Dec-09 20:46 201 9 gusting 26 11.1
2019-Dec-09 20:31 191 7 gusting 19 11.7
2019-Dec-09 20:16 175 8 gusting 17 11.1
2019-Dec-09 20:02 171 8 gusting 19 11.7
2019-Dec-09 19:45 187 9 gusting 17 11.7
2019-Dec-09 19:31 149 6 gusting 15 11.7
2019-Dec-09 19:15 168 7 gusting 14 11.1
2019-Dec-09 19:00 199 7 gusting 15 11.1
2019-Dec-09 18:45 202 7 gusting 13 10.6
2019-Dec-09 18:30 222 6 gusting 13 10.6
2019-Dec-09 18:18 201 10 gusting 19 11.1
2019-Dec-09 18:00 173 11 gusting 19 11.1
2019-Dec-09 17:15 166 9 gusting 20 11.7
2019-Dec-09 17:01 200 10 gusting 19 11.1
2019-Dec-09 16:46 199 8 gusting 15 11.1
2019-Dec-09 16:30 187 8 gusting 19 10.6
2019-Dec-09 16:15 162 7 gusting 15 10.6
2019-Dec-09 16:00 200 8 gusting 19 10.6
2019-Dec-09 15:16 164 6 gusting 23 10.6
2019-Dec-09 15:00 166 7 gusting 18 10.0
2019-Dec-09 14:31 136 6 gusting 13 10.6
2019-Dec-09 14:01 167 6 gusting 11 10.0
2019-Dec-09 13:45 211 5 gusting 13 10.0
2019-Dec-09 13:30 200 6 gusting 13 9.4
2019-Dec-09 13:15 214 6 gusting 12 9.4
2019-Dec-09 13:00 208 8 gusting 13 9.4
2019-Dec-09 12:31 194 7 gusting 15 9.4
2019-Dec-09 12:15 170 4 gusting 8 9.4
2019-Dec-09 12:01 210 3 gusting 10 9.4
2019-Dec-09 11:45 185 1 gusting 8 9.4
2019-Dec-09 11:31 180 3 gusting 7 8.9
2019-Dec-09 11:15 187 5 gusting 9 8.9
2019-Dec-09 11:00 183 3 gusting 8 8.9
2019-Dec-09 10:45 179 1 gusting 11 8.9
2019-Dec-09 10:31 226 4 gusting 12 8.9
2019-Dec-09 10:01 185 3 gusting 8 8.3
2019-Dec-09 09:45 208 8.9
2019-Dec-09 09:30 219 3 gusting 6 8.9
2019-Dec-09 09:16 175 2 gusting 9 8.9
2019-Dec-09 09:02 208 5 gusting 8 8.3
2019-Dec-09 08:45 196 6 gusting 12 8.3
2019-Dec-09 08:32 191 6 gusting 12 8.3
2019-Dec-09 08:16 213 7 gusting 12 7.8
2019-Dec-09 07:47 195 6 gusting 12 7.8
2019-Dec-09 07:30 219 6 gusting 10 7.2
2019-Dec-09 07:16 210 6 gusting 13 7.2
2019-Dec-09 07:00 208 6 gusting 14 7.2
2019-Dec-09 06:31 193 7 gusting 13 7.2
2019-Dec-09 06:16 187 6 gusting 16 7.2
2019-Dec-09 06:00 223 8 gusting 15 7.2
2019-Dec-09 05:32 227 8 gusting 15 6.7
2019-Dec-09 05:16 215 9 gusting 16 6.7
2019-Dec-09 05:01 198 10 gusting 16 6.7
2019-Dec-09 04:45 208 7 gusting 16 7.2
2019-Dec-09 04:30 210 9 gusting 19 6.7
2019-Dec-09 04:15 200 9 gusting 19 6.7
2019-Dec-09 03:45 222 9 gusting 18 6.7
2019-Dec-09 03:31 229 9 gusting 13 6.7
2019-Dec-09 03:16 224 9 gusting 16 6.7
2019-Dec-09 03:01 204 9 gusting 14 6.7
2019-Dec-09 02:46 124 8 gusting 14 6.7
2019-Dec-09 02:30 210 8 gusting 18 6.7
2019-Dec-09 02:15 199 9 gusting 18 6.1
2019-Dec-09 01:46 220 7 gusting 15 6.1
2019-Dec-09 01:30 225 8 gusting 14 6.1
2019-Dec-09 01:15 218 7 gusting 14 6.1
2019-Dec-09 00:49 191 7 gusting 15 5.6
2019-Dec-09 00:31 207 9 gusting 18 5.6
2019-Dec-09 00:15 208 9 gusting 15 5.6
2019-Dec-09 00:01 210 6 gusting 15 5.0
2019-Dec-08 23:46 187 6 gusting 14 5.0
2019-Dec-08 23:31 190 6 gusting 15 5.0
2019-Dec-08 23:16 189 7 gusting 14 5.0
2019-Dec-08 23:00 204 8 gusting 15 4.4
2019-Dec-08 22:45 212 8 gusting 18 4.4
2019-Dec-08 22:31 223 10 gusting 18 4.4
2019-Dec-08 22:16 201 9 gusting 19 4.4
2019-Dec-08 22:00 202 7 gusting 14 3.9
2019-Dec-08 21:46 212 7 gusting 15 3.9
2019-Dec-08 21:30 214 8 gusting 13 3.9
2019-Dec-08 21:17 204 8 gusting 15 3.9
2019-Dec-08 21:00 253 8 gusting 15 3.3
2019-Dec-08 20:45 212 7 gusting 14 3.3
2019-Dec-08 20:31 196 5 gusting 15 3.3
2019-Dec-08 20:16 204 7 gusting 16 2.8
2019-Dec-08 20:02 215 9 gusting 15 2.8
2019-Dec-08 19:46 206 9 gusting 14 2.8
2019-Dec-08 19:31 244 7 gusting 13 2.8
2019-Dec-08 19:16 241 8 gusting 15 2.8
2019-Dec-08 19:01 212 7 gusting 14 2.8
2019-Dec-08 18:46 198 6 gusting 15 2.8
2019-Dec-08 18:31 238 7 gusting 12 2.8
2019-Dec-08 18:15 222 6 gusting 13 2.2
2019-Dec-08 18:00 195 6 gusting 13 2.2
2019-Dec-08 17:46 260 6 gusting 13 1.7
2019-Dec-08 17:31 233 4 gusting 11 1.7
2019-Dec-08 17:15 265 2 gusting 7 1.1
2019-Dec-08 17:00 231 5 gusting 7 1.1
2019-Dec-08 16:32 214 4 gusting 6 0.6
2019-Dec-08 16:16 205 4 gusting 7 0.6
2019-Dec-08 16:00 204 0 gusting 6 -0.0
2019-Dec-08 15:47 223 1 gusting 7 -0.6
2019-Dec-08 15:30 229 1 gusting 6 -0.6
2019-Dec-08 15:15 212 2 gusting 5 -1.1
2019-Dec-08 14:46 233 -1.7
2019-Dec-08 14:30 292 -1.7
2019-Dec-08 14:00 345 -3.3
2019-Dec-08 13:46 345 -3.9
2019-Dec-08 13:31 345 0 gusting 4 -4.4
2019-Dec-08 13:15 345 1 gusting 4 -5.0
2019-Dec-08 13:00 345 0 gusting 3 -5.0
2019-Dec-08 12:46 345 -5.6
2019-Dec-08 12:32 345 -5.6
2019-Dec-08 12:15 345 0 gusting 4 -5.6
2019-Dec-08 12:01 346 0 gusting 3 -5.6
2019-Dec-08 11:46 345 -5.6
2019-Dec-08 11:30 345 1 gusting 3 -5.6
2019-Dec-08 11:15 345 0 gusting 2 -5.6
2019-Dec-08 11:02 345 1 gusting 4 -5.6
2019-Dec-08 10:46 346 2 gusting 6 -5.0
2019-Dec-08 10:30 352 1 gusting 6 -5.0
2019-Dec-08 10:16 004 2 gusting 5 -5.0
2019-Dec-08 10:01 335 2 gusting 6 -5.0
2019-Dec-08 09:45 348 1 gusting 5 -5.0
2019-Dec-08 09:17 345 1 gusting 5 -4.4
2019-Dec-08 09:00 327 -4.4
2019-Dec-08 08:45 335 0 gusting 5 -4.4
2019-Dec-08 08:33 341 1 gusting 6 -4.4
2019-Dec-08 08:17 329 1 gusting 4 -4.4
2019-Dec-08 08:01 343 1 gusting 6 -3.9
2019-Dec-08 07:45 343 4 gusting 7 -3.9
2019-Dec-08 07:15 329 2 gusting 6 -3.9
2019-Dec-08 07:00 333 2 gusting 6 -3.9
2019-Dec-08 06:45 341 2 gusting 6 -3.9
2019-Dec-08 06:31 336 1 gusting 6 -3.9
2019-Dec-08 06:15 335 2 gusting 5 -3.9
2019-Dec-08 06:00 352 2 gusting 7 -3.3
2019-Dec-08 05:45 342 2 gusting 6 -3.9
2019-Dec-08 05:32 340 1 gusting 6 -3.9
2019-Dec-08 05:15 340 2 gusting 6 -3.3
2019-Dec-08 04:46 341 2 gusting 7 -3.3
2019-Dec-08 04:31 343 3 gusting 6 -3.3
2019-Dec-08 04:15 341 2 gusting 9 -2.8
2019-Dec-08 04:01 339 4 gusting 9 -2.8
2019-Dec-08 03:46 342 2 gusting 6 -2.8
2019-Dec-08 03:30 355 4 gusting 7 -2.8
2019-Dec-08 03:15 349 4 gusting 8 -2.8
2019-Dec-08 03:01 356 3 gusting 10 -2.2
2019-Dec-08 02:46 343 4 gusting 7 -2.2
2019-Dec-08 02:31 345 4 gusting 7 -2.2
2019-Dec-08 02:15 341 4 gusting 8 -2.2
2019-Dec-08 02:01 338 4 gusting 8 -2.2
2019-Dec-08 01:45 333 2 gusting 10 -2.2
2019-Dec-08 01:30 332 3 gusting 8 -2.2
2019-Dec-08 01:15 337 3 gusting 8 -1.7
2019-Dec-08 01:01 341 4 gusting 10 -1.7
2019-Dec-08 00:45 347 4 gusting 13 -1.7
2019-Dec-08 00:31 344 5 gusting 10 -1.1
2019-Dec-08 00:16 339 4 gusting 8 -1.1
2019-Dec-08 00:00 343 2 gusting 6 -1.1